Location: Jarocin
(51.9626°N, 17.5030°E)
Time: 03:42:43
(UTC+02:00)

ISS - Visible Passes

Search period start: 20 October 2019 00:00
Search period end: 29 October 2019 23:00
Orbit: 411 x 421 km, 51.6° (Epoch: 19 October)

Date Brightness Start Highest point End Pass type
(mag) Time Alt. Az. Time Alt. Az. Time Alt. Az.
24 Oct -0.8 06:51:06 10° S 06:53:17 16° SE 06:55:28 10° ESE visible
25 Oct -0.6 06:03:54 10° SSE 06:04:54 11° SE 06:05:53 10° ESE visible
26 Oct -1.9 06:49:27 10° SSW 06:52:26 30° SSE 06:55:26 10° E visible
27 Oct -1.5 05:01:17 10° SSW 05:03:56 22° SE 05:06:36 10° E visible
28 Oct -1.2 04:14:29 14° SSE 04:15:30 15° SE 04:17:33 10° ESE visible
28 Oct -3.0 05:48:24 10° WSW 05:51:41 52° SSE 05:54:58 10° E visible
29 Oct -2.6 05:01:04 19° SW 05:03:05 39° SSE 05:06:16 10° E visible
